www.pogodaiklimat.ru

Погода и климат >> Архив погоды >> Украина >> Харьков


АРХИВ ПОГОДЫ в Харькове

Время (UTC), дата Ветер
(напр.,м/с)
 
Видим.   Явления Облачность Т
(С)
Тd
(С)
f
(%)
Тe
(С)
Тes
(С)
Комфортность P
(гПа)
Po
(гПа)
Тmin
(С)
Tmax
(С)
R
(мм)
R24
(мм)
S
(см)
03 13.09 СЗ 1 10 км 3/0
[Ac trans]
+11.3 +5.4 67 +11 +11 по сезону 1026.4 1007.6
06 13.09 ЮВ 3 10 км 4/0
[Ac trans Ci fib]
+18.5 +5.6 43 +19 +21 тепло 1026.3 1007.9 +11.3
09 13.09 ЮЗ 3 10 км 5/0
[Ac trans Ci fib]
+25.9 +4.4 25 +25 +31 комфорт 1024.8 1006.9
12 13.09 ЮВ 2 10 км 5/3 1000 м
[Cu hum Ci fib]
+26.9 +2.6 21 +25 +30 комфорт 1022.7 1004.9
15 13.09 Ю 2 10 км 3/0
[Ac cuf]
+25.9 +3.8 24 +25 +25 комфорт 1021.4 1003.6
18 13.09 Ю 3 10 км ясно +19.6 +4.2 36 +20 +20 тепло 1021.5 1003.3 +27.6
21 13.09 Ю 2 10 км 4/0
[Ac trans]
+16.9 +3.8 42 +17 +17 тепло 1021.0 1002.6
00 14.09 Ю 2 10 км 4/0
[Ci fib]
+15.7 +2.9 42 +16 +16 тепло 1020.1 1001.7
03 14.09 ЮЗ 2 10 км 3/0
[Ci fib]
+15.1 +4.6 49 +15 +15 тепло 1019.2 1000.8
06 14.09 З 2 10 км 8/0
[Ci]
+17.6 +5.7 46 +18 +21 тепло 1019.5 1001.2 +14.0
09 14.09 СЗ 4 10 км 9/0
[Ac trans Ci]
+23.5 +6.1 33 +24 +28 комфорт 1018.1 1000.2
12 14.09 З 4 10 км 9/4 1000 м
[Sc Ac trans]
+21.6 +8.1 42 +23 +24 комфорт 1018.1 1000.1
15 14.09 СЗ 6 10 км 9/6 1000 м
[Cb cap Ac trans]
+18.8 +10.9 60 +19 +19 тепло 1018.8 1000.6
18 14.09 СЗ 5 10 км {ливн. осадки} 4/0
[Ac trans]
+16.6 +4.2 44 +16 +16 тепло 1020.7 1002.3 +24.3 0.0
21 14.09 СЗ 3 10 км ясно +13.1 +3.8 53 +12 +12 по сезону 1022.2 1003.6
00 15.09 З 2 10 км ясно +9.7 +3.8 67 +8 +8 по сезону 1022.8 1003.9
03 15.09 З 2 10 км 6/0
[Ci]
+7.2 +2.9 74 +5 +5 холодно 1023.2 1004.2
06 15.09 З 3 10 км 3/0
[Ci fib]
+11.8 +2.6 53 +10 +13 по сезону 1023.5 1004.8 +7.1
09 15.09 З 6 10 км 6/5 1000 м
[Cu hum Ci fib]
+18.4 +1.2 32 +18 +20 тепло 1022.0 1003.7
12 15.09 СЗ 4 10 км 6/4 1000 м
[Cu hum Ci fib]
+19.0 +0.5 29 +19 +21 тепло 1020.6 1002.4
15 15.09 З 5 10 км 8/0
[Ci fib]
+19.2 -0.2 27 +19 +19 тепло 1019.1 1000.9
18 15.09 ЮЗ 2 10 км 8/0
[Ci fib]
+14.6 +0.5 38 +15 +15 тепло 1019.3 1000.8 +20.1
21 15.09 Ю 2 10 км 5/0
[Ci fib]
+12.0 +1.4 48 +11 +11 по сезону 1018.0 999.4
00 16.09 ЮЗ 3 10 км 4/0
[Ci fib]
+11.5 +2.2 53 +10 +10 по сезону 1016.4 997.8
03 16.09 ЮЗ 3 10 км 4/0
[Ci fib]
+11.0 +0.9 50 +10 +10 по сезону 1014.1 995.5
06 16.09 ЮЗ 7 10 км 4/0
[Ac trans Ci fib]
+15.9 +2.7 41 +15 +15 тепло 1012.2 993.9 +11.0
09 16.09 З 8 10 км 6/0
[Ci]
+22.3 +2.6 27 +22 +24 комфорт 1009.9 992.1
12 16.09 ЮЗ 9 10 км 4/0
[Ac trans]
+24.9 +1.7 22 +24 +24 комфорт 1007.7 990.0
15 16.09 З 6 10 км 8/0
[Ac trans]
+23.4 +5.8 32 +24 +24 комфорт 1006.9 989.2
18 16.09 З 2 10 км 9/0
[Ac trans]
+20.8 +8.0 44 +23 +23 комфорт 1007.5 989.6 +25.4
21 16.09 З 2 10 км 9/0
[Ac trans]
+18.0 +8.1 52 +19 +19 тепло 1007.4 989.4
00 17.09 штиль 0 10 км 9/0
[Ac trans]
+16.1 +7.3 56 +16 +16 тепло 1006.7 988.6
03 17.09 З 2 10 км 6/0
[Ac trans Cc]
+14.2 +5.4 55 +14 +14 тепло 1006.4 988.1
06 17.09 З 4 10 км 9/0
[Ac trans]
+14.3 +5.2 54 +13 +14 по сезону 1007.4 989.1 +13.5
09 17.09 З 6 10 км 9/0
[Ac trans]
+17.4 +2.0 36 +17 +18 тепло 1007.2 989.1
12 17.09 З 5 10 км 9/0
[Ac trans Ci]
+18.4 +2.4 34 +18 +20 по сезону 1006.3 988.3
15 17.09 З 4 10 км 4/3 1000 м
[Sc Ac trans]
+18.2 +1.4 32 +18 +18 тепло 1005.4 987.4
18 17.09 З 2 10 км 4/0
[Ac trans]
+14.5 +3.0 46 +14 +14 по сезону 1006.7 988.4 +19.5
21 17.09 ЮЗ 2 10 км 4/0
[Ac trans]
+11.4 +3.0 56 +11 +11 по сезону 1006.9 988.4
00 18.09 Ю 1 10 км 4/0
[Ac trans]
+7.9 +2.7 70 +7 +7 по сезону 1006.1 987.4
03 18.09 ЮВ 3 10 км 9/0
[Ac trans]
+7.7 +4.5 80 +5 +5 прохладно 1004.3 985.6
06 18.09 ЮЗ 4 10 км слаб. ливневой дождь 10/10 600 м
[Cb cap]
+11.1 +7.2 77 +9 +9 по сезону 1003.9 985.5 +5.6 0.8
09 18.09 ЮЗ 5 10 км {ливн. осадки} 8/3 570 м
[Cu hum Ac und]
+13.0 +9.3 78 +11 +13 прохладно 1002.9 984.6
12 18.09 ЮЗ 8 10 км {ливн. осадки} 8/5 600 м
[Cb cap Ac trans]
+14.8 +7.6 62 +13 +13 прохладно 1001.5 983.4
15 18.09 З 7 10 км 6/6 1000 м
[Sc diur, vesp]
+13.3 -1.5 36 +11 +11 прохладно 1004.4 986.1
18 18.09 З 6
{18}
10 км ясно +9.8 +2.3 60 +7 +7 холодно 1007.5 988.9 +16.9 2
21 18.09 З 5 10 км ясно +8.8 +2.4 64 +6 +6 прохладно 1009.3 990.6
00 19.09 З 5 10 км ясно +7.6 +3.7 76 +4 +4 прохладно 1011.5 992.7
03 19.09 З 6 10 км 8/8 720 м
[Sc]
+8.7 +4.7 76 +5 +5 прохладно 1013.3 994.5
06 19.09 З 5 10 км 8/8 660 м
[Sc]
+10.3 +4.8 69 +7 +8 прохладно 1015.7 997.0 +7.3
09 19.09 ЮЗ 6 10 км 8/8 1080 м
[Sc]
+13.1 +3.6 52 +11 +12 прохладно 1016.5 998.0
12 19.09 З 7 10 км 9/9 1000 м
[Sc]
+14.3 +2.9 46 +12 +13 холодно 1016.5 998.0
15 19.09 ЮЗ 5 10 км слаб. ливневой дождь 9/6 900 м
[Cb cap Ac trans]
+11.0 +6.3 73 +8 +8 холодно 1017.1 998.4
18 19.09 З 1 10 км {ливн. осадки} 6/0
[Ac trans]
+8.5 +5.9 84 +8 +8 прохладно 1018.1 999.3 +15.3 0.0
21 19.09 ЮЗ 2 10 км 6/4 1000 м
[Sc Ac trans]
+7.1 +4.6 84 +5 +5 холодно 1017.8 998.9
00 20.09 ЮЗ 2 10 км 8/0
[Ac trans]
+6.7 +4.9 88 +4 +4 прохладно 1018.0 999.0

 

Местоположение метеостанции Харьков (Харьковская область, Украина): широта 49.97 долгота 36.13 высота над уровнем моря 155 м.

В архиве по умолчанию представлена погода в Харькове за последнюю неделю. Архивные данные за месяц целиком и за предыдущие месяцы, начиная с января 2011 года, Вы можете получить, выбрав интересующий диапазон дат из раскрывающегося списка и нажав кнопку "Ввод!".


*Определитесь, кто Вы:
робот инопланетянин человек

Внимание! Время в таблицах - всемирное. Для получения местного времени необходимо прибавить поправку, которая равна 2 ч.

Смотрите также архив погоды в соседних городах и на ближайших метеорологических станциях:

Погода в Золочеве (Львовская область, Украина) (39 км)
Погода в Боходухове (Харьковская область, Украина) (50 км)
Погода в Комсомольском (Донецкая область, Украина) (50 км)
Погода в Коломаке (Харьковская область, Украина) (66 км)
Погода в Белгороде (Белгородская область, Россия) (80 км)
Погода в Краснограде (Харьковская область, Украина) (82 км)
Погода в Великом Бурлуке (Харьковская область, Украина) (90 км)
Погода в Готне (Белгородская область, Россия) (96 км)
Погода в Купянске (Харьковская область, Украина) (119 км)
Погода в Лозовой (Харьковская область, Украина) (120 км)

Пояснения к столбцам:

Ветер - указаны скорость ветра в м/с - средняя за 10 мин, порывы в срок и между сроками (в фигурных скобках) и направление, откуда дует ветер: С - северный, СВ - северо-восточный, В - восточный, ЮВ - юго-восточный, Ю - южный, ЮЗ - юго-западный, З - западный, СЗ - северо-западный.
Видимость - горизонтальная дальность видимости в метрах или километрах. При видимости от 1 до 10 км при отсутствии осадков обычно наблюдается дымка, при ухудшении видимости до 1 км и менее - туман. В сухую погоду видимость может ухудшаться дымом, пылью или мглою.
Явления - указаны атмосферные явления, наблюдавшиеся в срок или в последний час перед сроком; фигурными скобками обозначены явления, наблюдавшиеся между сроками (за 1-3 часа до срока); квадратными скобками обозначены град или гололедные отложения с указанием их диаметра в мм.
Облачность - указаны через наклонную черту общая и нижняя облачность в баллах и высота нижней границы облаков в метрах; квадратными скобками обозначены формы облаков: Ci - перистые, Cs - перисто-слоистые, Cc - перисто-кучевые, Ac - высококучевые, As - высокослоистые, Sc - слоисто-кучевые, Ns - слоисто-дождевые, Cu - кучевые, Cb - кучево-дождевые. Подробнее классификацию облаков см. в Атласе облаков (PDF).
T - Температура воздуха - температура, измеренная на высоте 2 м над землей.
Td - Температура точки росы - температура, при понижении до которой содержащийся в воздухе водяной пар достигнет насыщения.
f - Относительная влажность воздуха - влажноcть воздуха, измеренная на высоте 2 м над землей.
Te - Эффективная температура - температура, которую ощущает одетый по сезону человек в тени. Характеристика душности погоды. При расчете учитывается влияние влажности воздуха и скорости ветра на теплоощущения человека.
Tes - Эффективная температура на солнце - температура, которую ощущает человек, с поправкой на солнечный нагрев. Характеристика знойности погоды. Зависит от высоты солнца над горизонтом, облачности и скорости ветра. Ночью, в пасмурную погоду, а также при ветре 12 м/с и более поправка равна нулю.
P - Атмосферное давление - приведенное к уровню моря атмосферное давление.
Po - Атмосферное давление - измеренное на уровне метеостанции атмосферное давление.
Tmin - Минимальная температура - минимум температуры воздуха на высоте 2 м над землей.
Tmax - Максимальная температура - максимум температуры воздуха на высоте 2 м над землей.
R - Количество осадков - Количество выпавших осадков за период времени, мм. При наведении курсора мыши на число - период времени, за который выпало указанное количество осадков.
R24 - Количество осадков - Количество выпавших осадков за 24 часа, мм.
S - Снежный покров - Высота снежного покрова, см. При наведении курсора мыши на число - состояние снежного покрова и степень покрытия местности в баллах.